Location: Newark
(58.8333°N, 23.5833°E)
Time: 02:54:28
(UTC+00:00)

METEOR M2 - Pass Details

Date: 08 December 2019
Orbit: 819 x 827 km, 98.5° (Epoch: 25 January)

Event Time Altitude Azimuth Distance (km) Brightness Sun altitude
Exits shadow 18:40:09 26° 320° (NW) 1,588 ? -37.5°
Drops below altitude 10° 18:42:36 10° 335° (NNW) 2,433 ? -37.8°
Sets 18:45:04 0° 342° (NNW) 3,369 ? -38.1°
